Location: Newark
(48.4472°N, 1.4892°E)
Time: 10:19:22
(UTC+00:00)

Vanguard 1 Rocket - All Passes

Search period start: 12 November 2019 00:00
Search period end: 22 November 2019 00:00
Orbit: 651 x 4225 km, 34.3° (Epoch: 11 November)

Date Brightness Start Highest point End Pass type
(mag) Time Alt. Az. Time Alt. Az. Time Alt. Az.
12 Nov - 05:17:15 10° SSW 05:20:51 18° SSE 05:25:36 10° ESE visible
12 Nov - 07:39:16 10° WSW 07:44:59 29° S 07:54:21 10° SE daylight
12 Nov - 10:03:29 10° WSW 10:10:39 23° SSW 10:21:42 10° SSE daylight
13 Nov - 04:09:42 10° SSE 04:10:29 10° SSE 04:11:19 10° SE visible
13 Nov - 06:29:23 10° SW 06:34:04 26° S 06:41:09 10° ESE daylight
13 Nov - 08:52:42 10° WSW 08:59:00 26° S 09:09:02 10° SE daylight
13 Nov - 11:19:54 10° SW 11:25:17 14° SSW 11:32:07 10° S daylight
14 Nov - 05:19:50 10° SSW 05:23:28 19° SSE 05:28:15 10° ESE visible
14 Nov - 07:42:23 10° WSW 07:47:44 26° S 07:56:08 10° SE daylight
14 Nov - 10:07:23 10° WSW 10:13:21 18° SSW 10:21:45 10° SSE daylight
15 Nov - 04:11:02 10° S 04:13:02 12° SSE 04:15:14 10° SE visible
15 Nov - 06:32:21 10° SW 06:36:48 24° S 06:43:20 10° SE daylight
15 Nov - 08:56:12 10° WSW 09:01:46 21° SSW 09:09:58 10° SSE daylight
16 Nov - 05:22:35 10° SW 05:26:09 20° SSE 05:30:48 10° ESE visible
16 Nov - 07:45:39 10° SW 07:50:30 22° S 07:57:42 10° SE daylight
16 Nov - 10:12:24 10° SW 10:16:06 12° SSW 10:20:35 10° S daylight
17 Nov - 04:13:14 10° SSW 04:15:40 14° SSE 04:18:24 10° SE visible
17 Nov - 06:35:27 10° SW 06:39:34 21° S 06:45:23 10° SE daylight
17 Nov - 09:00:11 10° SW 09:04:33 15° SSW 09:10:21 10° SSE daylight
18 Nov - 05:25:28 10° SW 05:28:53 19° S 05:33:14 10° SE visible
18 Nov - 07:49:11 10° SW 07:53:19 17° S 07:58:56 10° SSE daylight
19 Nov - 04:15:43 10° SSW 04:18:21 15° SSE 04:21:17 10° SE visible
19 Nov - 06:38:43 10° SW 06:42:22 18° S 06:47:12 10° SE daylight
19 Nov - 09:06:06 10° SSW 09:07:21 10° SSW 09:08:41 10° SSW daylight
20 Nov - 03:06:34 10° S 03:07:51 11° SSE 03:09:07 10° SSE visible
20 Nov - 05:28:30 10° SW 05:31:39 17° S 05:35:31 10° SE visible
20 Nov - 07:53:21 10° SW 07:56:07 13° SSW 07:59:29 10° S daylight
21 Nov - 04:18:25 10° SSW 04:21:05 15° S 04:24:01 10° SE visible
21 Nov - 06:42:19 10° SW 06:45:10 14° S 06:48:40 10° SSE daylight
